TimeEDT,TemperatureF,Dew PointF,Humidity,Sea Level PressureIn,VisibilityMPH,Wind Direction,Wind SpeedMPH,Gust SpeedMPH,PrecipitationIn,Events,Conditions,WindDirDegrees,DateUTC
12:53 AM,46.0,34.0,63,30.09,10.0,SW,4.6,-,N/A,,Clear,220,2013-10-27 04:53:00
1:53 AM,45.0,34.0,65,30.08,10.0,SW,5.8,-,N/A,,Partly Cloudy,230,2013-10-27 05:53:00
2:53 AM,44.1,34.0,68,30.06,10.0,SW,3.5,-,N/A,,Clear,230,2013-10-27 06:53:00
3:53 AM,44.1,35.1,71,30.05,10.0,WSW,3.5,-,N/A,,Partly Cloudy,250,2013-10-27 07:53:00
4:53 AM,42.1,35.1,76,30.05,10.0,SSW,3.5,-,N/A,,Mostly Cloudy,210,2013-10-27 08:53:00
5:53 AM,42.1,35.1,76,30.06,10.0,Calm,Calm,-,N/A,,Clear,0,2013-10-27 09:53:00
6:53 AM,39.9,36.0,86,30.06,10.0,SW,3.5,-,N/A,,Clear,220,2013-10-27 10:53:00
7:53 AM,39.9,35.1,83,30.09,10.0,WSW,4.6,-,N/A,,Clear,250,2013-10-27 11:53:00
8:53 AM,48.0,37.0,66,30.11,10.0,WSW,6.9,-,N/A,,Clear,250,2013-10-27 12:53:00
9:53 AM,54.0,37.9,55,30.12,10.0,Calm,Calm,-,N/A,,Clear,0,2013-10-27 13:53:00
10:53 AM,61.0,37.9,42,30.13,10.0,North,6.9,-,N/A,,Clear,10,2013-10-27 14:53:00
11:53 AM,64.0,37.9,38,30.12,10.0,North,9.2,-,N/A,,Clear,360,2013-10-27 15:53:00
12:53 PM,66.0,37.9,36,30.10,10.0,Variable,3.5,-,N/A,,Clear,0,2013-10-27 16:53:00
1:53 PM,66.9,37.9,34,30.08,10.0,Calm,Calm,-,N/A,,Clear,0,2013-10-27 17:53:00
2:53 PM,69.1,39.0,33,30.05,10.0,South,4.6,-,N/A,,Clear,180,2013-10-27 18:53:00
3:53 PM,69.1,39.9,35,30.04,10.0,Variable,6.9,-,N/A,,Clear,0,2013-10-27 19:53:00
4:53 PM,70.0,41.0,35,30.05,10.0,WSW,9.2,-,N/A,,Clear,240,2013-10-27 20:53:00
5:53 PM,66.9,42.1,40,30.06,10.0,SW,4.6,-,N/A,,Clear,220,2013-10-27 21:53:00
6:53 PM,63.0,44.1,50,30.06,10.0,Calm,Calm,-,N/A,,Clear,0,2013-10-27 22:53:00
7:53 PM,57.0,45.0,64,30.08,10.0,Calm,Calm,-,N/A,,Clear,0,2013-10-27 23:53:00
8:53 PM,53.1,46.0,77,30.09,10.0,SSW,3.5,-,N/A,,Clear,200,2013-10-28 00:53:00
9:53 PM,53.1,44.1,71,30.11,10.0,Calm,Calm,-,N/A,,Clear,0,2013-10-28 01:53:00
10:53 PM,50.0,44.1,80,30.12,10.0,Calm,Calm,-,N/A,,Clear,0,2013-10-28 02:53:00
11:53 PM,48.9,44.1,83,30.12,10.0,Calm,Calm,-,N/A,,Clear,0,2013-10-28 03:53:00